Terminal Aerodrome Forecast
Issued by NWS

Home | Current Version | Previous Version | Graphics & Text | Print | Product List | Glossary On
Versions: 1 2 3 4 5 6 7 8 9 10 11 12 13 14 15 16 17 18 19 20 21 22 23 24 25 26 27 28 29 30 31 32 33 34 35 36 37 38 39 40 41 42 43 44 45 46 47 48 49 50
211
FTUS43 KLOT 041126
TAFGYY
TAF
KGYY 041126Z 0412/0512 36018G28KT P6SM SCT005 BKN012 OVC018
      TEMPO 0412/0414 BKN005
     FM041900 01017G27KT P6SM VCSH BKN035
     FM050400 01016G25KT P6SM BKN018=

USA.gov is the U.S. government's official web portal to all federal, state and local government web resources and services.